Regional Weather Roundup
Issued by NWS Cleveland, OH

Home | Current Version | Previous Version | Graphics & Text | Print | Product List | Glossary On
Versions: 1 2 3 4 5 6 7 8 9 10 11 12 13 14 15 16 17 18 19 20 21 22 23 24 25 26 27 28 29 30 31 32 33 34 35 36 37 38 39 40 41 42 43 44 45 46 47 48 49 50
000
ASUS41 KCLE 251602
RWRCLE
OHIO REGIONAL WEATHER ROUNDUP
NATIONAL WEATHER SERVICE CLEVELAND, OH
1200 PM EDT MON MAY 25 2015

NOTE: "FAIR" INDICATES FEW OR NO CLOUDS BELOW 12,000 FEET WITH NO
SIGNIFICANT WEATHER AND/OR OBSTRUCTIONS TO VISIBILITY.

OHZ001>008-015>018-024>027-034-035-043-044-251700-
   NORTHWEST OHIO

CITY           SKY/WX    TMP DP  RH WIND       PRES   REMARKS
DEFIANCE       PTSUNNY   78  63  59 SW21G30   30.01S
FINDLAY        CLOUDY    76  61  59 SW20G31   30.05R
TOLEDO EXPRESS CLOUDY    78  61  55 SW23G37   30.01R
TOLEDO EXEC    CLOUDY    81  59  47 SW28G36   30.02S
LIMA           CLOUDY    74  61  63 S18G32    30.06F
$$

OHZ009>014-019>023-028>033-038-089-251700-
   NORTHEAST OHIO

CITY           SKY/WX    TMP DP  RH WIND       PRES   REMARKS
CLE-HOPKINS    CLOUDY    76  58  53 S14G22    30.09F
CLE-LAKEFRONT  CLOUDY    76  58  53 S17G30    30.06F
CUY CO. ARPT   PTSUNNY   79  63  57 S14G23    30.09F
LORAIN-ELYRIA  CLOUDY    79  59  50 SW22G33   30.07F
ASHTABULA      MOSUNNY   77  60  55 SW14      30.11F
AKRON-CANTON   CLOUDY    76  57  51 SW14G26   30.14F
WOOSTER        CLOUDY    77  57  50 SW17G29   30.13F
MANSFIELD      MOSUNNY   78  59  51 SW24G33   30.11F
YOUNGSTOWN     CLOUDY    75  57  53 SW13G21   30.15S
$$

OHZ042-051>053-060>062-070>072-077>081-251700-
  SOUTHWEST OHIO

CITY           SKY/WX    TMP DP  RH WIND       PRES   REMARKS
CINC-COVINGTON CLOUDY    69  64  84 S13       30.15S
CINC-LUNKEN    CLOUDY    70  64  81 S9        30.15S
HAMILTON       CLOUDY    71  64  78 VRB7      30.14S
DAYTON         LGT RAIN  70  64  81 SW23G31   30.12S
WRIGHT-PAT AFB NOT AVBL
DAYTON GENERAL LGT RAIN  68  64  87 SW13G20   30.13F
WILMINGTON     PTSUNNY   76  57  51 SW24G41   30.12F
$$

OHZ036-037-039>041-045>050-054>059-063>069-073>076-082>088-251700-
  CENTRAL AND SOUTHEAST OHIO

CITY           SKY/WX    TMP DP  RH WIND       PRES   REMARKS
COLUMBUS       PTSUNNY   78  60  53 SW14G22   30.14S
OSU AIRPORT    CLOUDY    77  60  55 SW20G31   30.13S
BOLTON FIELD   NOT AVBL
RICKENBACK AFB NOT AVBL
NEWARK         PTSUNNY   79  60  52 SW21G30   30.14F
MARION         PTSUNNY   76  59  55 SW22G33   30.11R
LANCASTER      PTSUNNY   81  58  45 SW13G29   30.15F
ZANESVILLE     PTSUNNY   76  57  51 SW15      30.17S
NEW PHILLY     CLOUDY    79  58  48 S6        30.16F
$$



USA.gov is the U.S. government's official web portal to all federal, state and local government web resources and services.